Marrakech, Morocco

12:22 PM WET on June 24, 2017 (GMT +0000)
Marrakech

Weather History for GMMX - April, 2012

Change the Weather History Date:

Monday, April 2, 2012

  Actual Average Record
Temperature  
Mean Temperature 60 °F -  
Max Temperature 68 °F 75 °F 96 °F (2006)
Min Temperature 51 °F 52 °F 47 °F (2016)
Degree Days  
Heating Degree Days 6    
Growing Degree Days 10 (Base 50)    
Moisture  
Dew Point 48 °F    
Average Humidity 69    
Maximum Humidity 100    
Minimum Humidity 34    
Precipitation  
Precipitation 0.00 in 0.05 in - ()
Sea Level Pressure  
Sea Level Pressure 29.88 in    
Wind  
Wind Speed 5 mph ()    
Max Wind Speed 13 mph    
Max Gust Speed -    
Visibility 6.0 miles    
Events Thunderstorm    
Averages and records for this station are not official NWS values.
T = Trace of Precipitation, MM = Missing Value Source: Averaged Metar Reports

Daily Weather History Graph

Daily Weather History Graph

Search for Another Location

Airport or City:

Trip Planner

Search our weather history database for the weather conditions in past years. The results will help you decide how hot, cold, wet, or windy it might be!

Date:

Astronomy

Apr. 02, 2012 Rise Set
Actual Time 6:19 AM WET 6:52 PM WET
Civil Twilight 5:54 AM WET 7:17 PM WET
Nautical Twilight 5:25 AM WET 7:45 PM WET
Astronomical Twilight 4:56 AM WET 8:15 PM WET
Moon 2:29 PM WET (4/2) 3:06 AM WET (4/2)
Length of Visible Light 13h 22m
Length of Day
12h 33m
Waxing Gibbous, 77% of the Moon is Illuminated
Apr 2
Waxing Gibbous
Apr 6
Full
Apr 13
Last Quarter
Apr 21
New
Apr 29
First Quarter

Hourly Weather History & Observations

Time (WET) Temp. Dew Point Humidity Pressure Visibility Wind Dir Wind Speed Gust Speed Precip Events Conditions
12:00 AM 56 °F 52 °F 82% 29.90 in 6 mi NW 5.8 mph - -   Partly Cloudy
12:00 AM 55.4 °F 51.8 °F 88% 29.92 in 6.2 mi NW 6.9 mph - N/A   Scattered Clouds
12:30 AM 55.4 °F 51.8 °F 88% 29.92 in 6.2 mi WNW 5.8 mph - N/A   Scattered Clouds
1:00 AM 55.4 °F 51.8 °F 88% 29.89 in 6.2 mi West 5.8 mph - N/A   Scattered Clouds
1:30 AM 55.4 °F 51.8 °F 88% 29.89 in 6.2 mi West 5.8 mph - N/A   Scattered Clouds
2:00 AM 55.4 °F 51.8 °F 88% 29.89 in 6.2 mi WNW 6.9 mph - N/A   Scattered Clouds
2:30 AM 53.6 °F 51.8 °F 94% 29.89 in 6.2 mi NW 4.6 mph - N/A   Partly Cloudy
3:00 AM 54 °F 52 °F 89% 29.88 in 6 mi West 5.8 mph - -   Partly Cloudy
3:00 AM 53.6 °F 51.8 °F 94% 29.86 in 6.2 mi West 5.8 mph - N/A   Partly Cloudy
3:30 AM 53.6 °F 51.8 °F 94% 29.86 in 6.2 mi WSW 5.8 mph - N/A   Partly Cloudy
4:00 AM 53.6 °F 51.8 °F 94% 29.86 in 6.2 mi West 6.9 mph - N/A   Partly Cloudy
4:30 AM 53.6 °F 51.8 °F 94% 29.86 in 6.2 mi West 4.6 mph - N/A   Partly Cloudy
5:00 AM 53.6 °F 51.8 °F 94% 29.86 in 6.2 mi West 5.8 mph - N/A   Partly Cloudy
5:30 AM 51.8 °F 51.8 °F 100% 29.89 in 6.2 mi West 3.5 mph - N/A   Partly Cloudy
6:00 AM 52 °F 51 °F 95% 29.89 in 6 mi SW 2.3 mph - -   Partly Cloudy
6:00 AM 51.8 °F 51.8 °F 100% 29.89 in 6.2 mi Variable 2.3 mph - N/A   Partly Cloudy
6:30 AM 51.8 °F 51.8 °F 100% 29.89 in 6.2 mi Variable 2.3 mph - N/A   Scattered Clouds
7:00 AM 51.8 °F 51.8 °F 100% 29.89 in 6.2 mi WSW 4.6 mph - N/A   Scattered Clouds
7:30 AM 53.6 °F 51.8 °F 94% 29.92 in 4.3 mi WSW 4.6 mph - N/A   Scattered Clouds
8:00 AM 53.6 °F 51.8 °F 94% 29.92 in 3.1 mi WSW 4.6 mph - N/A   Mostly Cloudy
8:30 AM 53.6 °F 51.8 °F 94% 29.92 in 3.1 mi WSW 4.6 mph - N/A   Mostly Cloudy
9:00 AM 55 °F 50 °F 78% 29.93 in 6 mi West 4.6 mph - -   Partly Cloudy
9:00 AM 55.4 °F 51.8 °F 88% 29.92 in 5.6 mi WSW 4.6 mph - N/A   Mostly Cloudy
9:30 AM 57.2 °F 51.8 °F 82% 29.92 in 6.2 mi Variable 1.2 mph - N/A   Mostly Cloudy
10:00 AM 57.2 °F 50.0 °F 77% 29.92 in 6.2 mi NNW 3.5 mph - N/A   Scattered Clouds
10:30 AM 60.8 °F 48.2 °F 63% 29.92 in 6.2 mi NNW 4.6 mph - N/A   Scattered Clouds
11:00 AM 60.8 °F 48.2 °F 63% 29.92 in 6.2 mi NNW 5.8 mph - N/A   Scattered Clouds
11:30 AM 62.6 °F 44.6 °F 52% 29.92 in 6.2 mi WNW 5.8 mph - N/A   Scattered Clouds
12:00 PM 64.4 °F 42.8 °F 45% 29.89 in 6.2 mi Variable 4.6 mph - N/A   Scattered Clouds
12:13 PM 65 °F 43 °F 34% 29.86 in 6 mi NW 5.8 mph - -   Mostly Cloudy
12:30 PM 64.4 °F 42.8 °F 45% 29.89 in 6.2 mi NNW 4.6 mph - N/A   Scattered Clouds
1:00 PM 66.2 °F 42.8 °F 43% 29.89 in 6.2 mi Variable 4.6 mph - N/A   Scattered Clouds
1:30 PM 64.4 °F 42.8 °F 45% 29.89 in 6.2 mi NW 4.6 mph - N/A   Scattered Clouds
2:00 PM 66.2 °F 41.0 °F 40% 29.86 in 6.2 mi NNW 3.5 mph - N/A   Partly Cloudy
2:30 PM 68.0 °F 42.8 °F 40% 29.86 in 6.2 mi Variable 4.6 mph - N/A   Partly Cloudy
3:00 PM 67 °F 45 °F 34% 29.80 in 6 mi NW 8.1 mph - -   Mostly Cloudy
3:00 PM 68.0 °F 44.6 °F 43% 29.83 in 6.2 mi NW 8.1 mph - N/A   Partly Cloudy
3:30 PM 68.0 °F 44.6 °F 43% 29.83 in 6.2 mi NNW 6.9 mph - N/A   Partly Cloudy
4:00 PM 68.0 °F 44.6 °F 43% 29.83 in 6.2 mi West 5.8 mph - N/A   Partly Cloudy
4:30 PM 68.0 °F 44.6 °F 43% 29.83 in 6.2 mi West 4.6 mph - N/A   Partly Cloudy
5:00 PM 68.0 °F 42.8 °F 40% 29.83 in 6.2 mi NNW 5.8 mph - N/A   Partly Cloudy
5:30 PM 68.0 °F 42.8 °F 40% 29.83 in 6.2 mi WNW 5.8 mph - N/A   Partly Cloudy
6:00 PM 67 °F 46 °F 36% 29.78 in 6 mi NW 9.2 mph - -   Partly Cloudy
6:00 PM 68.0 °F 46.4 °F 46% 29.83 in 6.2 mi NW 6.9 mph - N/A   Scattered Clouds
6:12 PM 66.2 °F 46.4 °F 49% 29.83 in 6.2 mi NW 11.5 mph - N/A Thunderstorm Thunderstorm
6:30 PM 64.4 °F 46.4 °F 52% 29.83 in 6.2 mi NW 11.5 mph - N/A Thunderstorm Thunderstorm
7:00 PM 62.6 °F 44.6 °F 52% 29.83 in 6.2 mi NW 12.7 mph - N/A Thunderstorm Thunderstorm
7:30 PM 60.8 °F 48.2 °F 63% 29.86 in 6.2 mi North 11.5 mph - N/A Thunderstorm Thunderstorm
8:00 PM 59.0 °F 48.2 °F 67% 29.86 in 6.2 mi NNW 9.2 mph - N/A Thunderstorm Thunderstorm
8:30 PM 59.0 °F 50.0 °F 72% 29.89 in 6.2 mi NNW 10.4 mph - N/A Thunderstorm Thunderstorm
8:48 PM 59 °F 48 °F 57% 29.88 in 6 mi NW 9.2 mph - - Thunderstorm Thunderstorm
9:00 PM 59.0 °F 48.2 °F 67% 29.89 in 6.2 mi NW 9.2 mph - N/A Thunderstorm Thunderstorm
10:00 PM 57.2 °F 48.2 °F 72% 29.92 in 6.2 mi WNW 8.1 mph - N/A Thunderstorm Thunderstorm
11:00 PM 57.2 °F 48.2 °F 72% 29.92 in 6.2 mi NW 8.1 mph - N/A Thunderstorm Thunderstorm
11:30 PM 57.2 °F 50.0 °F 77% 29.92 in 6.2 mi NNW 8.1 mph - N/A   Scattered Clouds